Location: Kitchener-Waterloo
(43.4500°N, 80.5000°W)
Time: 19:39:33
(UTC-04:00)

ISS - All Passes

Search period start: 23 April 2017 00:00
Search period end: 03 May 2017 00:00
Orbit: 400 x 409 km, 51.6° (Epoch: 24 April)

Date Brightness Start Highest point End Pass type
(mag) Time Alt. Az. Time Alt. Az. Time Alt. Az.
23 Apr - 09:46:58 10° S 09:49:08 17° SE 09:51:18 10° E daylight
23 Apr - 11:22:03 10° WSW 11:25:18 65° NNW 11:28:32 10° NE daylight
23 Apr - 12:59:37 10° WNW 13:02:13 21° N 13:04:49 10° NE daylight
23 Apr - 14:36:54 10° NW 14:39:29 21° N 14:42:03 10° ENE daylight
23 Apr - 16:13:11 10° NW 16:16:26 61° NNE 16:19:39 10° ESE daylight
23 Apr - 17:50:18 10° W 17:52:37 18° SW 17:54:56 10° S daylight
24 Apr - 10:29:48 10° SW 10:33:02 71° SE 10:36:17 10° ENE daylight
24 Apr - 12:06:57 10° WNW 12:09:46 26° NNW 12:12:35 10° NE daylight
24 Apr - 13:44:33 10° NW 13:46:59 19° N 13:49:26 10° NE daylight
24 Apr - 15:21:01 10° NW 15:24:05 38° NNE 15:27:10 10° E daylight
24 Apr - 16:57:34 10° WNW 17:00:32 33° SW 17:03:29 10° SSE daylight
25 Apr - 09:37:49 10° SSW 09:40:51 37° SE 09:43:54 10° ENE daylight
25 Apr - 11:14:19 10° W 11:17:21 35° NNW 11:20:23 10° NE daylight
25 Apr - 12:52:03 10° NW 12:54:29 19° N 12:56:54 10° NE daylight
25 Apr - 14:28:49 10° NW 14:31:41 28° NNE 14:34:33 10° E daylight
25 Apr - 16:05:08 10° WNW 16:08:22 62° SW 16:11:35 10° SE daylight
26 Apr - 08:46:14 10° S 08:48:43 21° SE 08:51:14 10° E daylight
26 Apr - 10:21:47 10° WSW 10:24:58 54° NNW 10:28:11 10° NE daylight
26 Apr - 11:59:25 10° WNW 12:01:58 20° N 12:04:30 10° NE daylight
26 Apr - 13:36:35 10° NW 13:39:13 22° NNE 13:41:52 10° ENE daylight
26 Apr - 15:12:51 10° NW 15:16:06 74° NNE 15:19:20 10° ESE daylight
26 Apr - 16:50:18 10° W 16:52:12 15° SW 16:54:06 10° SSW daylight
27 Apr - 07:55:36 10° SSE 07:56:40 11° SE 07:57:45 10° ESE daylight
27 Apr - 09:29:24 10° SW 09:32:40 87° SE 09:35:55 10° ENE daylight
27 Apr - 11:06:43 10° WNW 11:09:28 24° NNW 11:12:12 10° NE daylight
27 Apr - 12:44:13 10° NW 12:46:42 20° N 12:49:10 10° NE daylight
27 Apr - 14:20:36 10° NW 14:23:45 44° NNE 14:26:53 10° E daylight
27 Apr - 15:57:19 10° WNW 16:00:06 26° SW 16:02:53 10° SSE daylight
28 Apr - 08:37:16 10° SW 08:40:24 47° SE 08:43:33 10° ENE daylight
28 Apr - 10:14:01 10° W 10:16:59 31° NNW 10:19:57 10° NE daylight
28 Apr - 11:51:44 10° NW 11:54:09 19° N 11:56:33 10° NE daylight
28 Apr - 13:28:23 10° NW 13:31:20 30° NNE 13:34:16 10° E daylight
28 Apr - 15:04:45 10° WNW 15:07:55 49° SW 15:11:04 10° SE daylight
29 Apr - 07:45:28 10° SSW 07:48:14 25° SE 07:50:59 10° E daylight
29 Apr - 09:21:24 10° WSW 09:24:33 46° NNW 09:27:43 10° NE daylight
29 Apr - 10:59:06 10° NW 11:01:35 20° N 11:04:05 10° NE daylight
29 Apr - 12:36:07 10° NW 12:38:50 24° NNE 12:41:33 10° ENE daylight
29 Apr - 14:12:23 10° WNW 14:15:39 89° NNE 14:18:54 10° ESE daylight
29 Apr - 15:50:23 10° WSW 15:51:39 12° SW 15:52:55 10° SSW daylight
30 Apr - 06:54:18 10° SSE 06:56:06 14° SE 06:57:54 10° E daylight
30 Apr - 08:28:55 10° WSW 08:32:10 77° NNW 08:35:26 10° NE daylight
30 Apr - 10:06:23 10° WNW 10:09:02 23° NNW 10:11:41 10° NE daylight
30 Apr - 11:43:46 10° NW 11:46:18 20° N 11:48:49 10° ENE daylight
30 Apr - 13:20:05 10° NW 13:23:17 52° NNE 13:26:28 10° ESE daylight
30 Apr - 14:56:59 10° W 14:59:33 22° SW 15:02:06 10° S daylight
01 May - 07:36:39 10° SW 07:39:51 58° SE 07:43:05 10° ENE daylight
01 May - 09:13:37 10° W 09:16:31 28° NNW 09:19:24 10° NE daylight
01 May - 10:51:17 10° NW 10:53:42 19° N 10:56:08 10° NE daylight
01 May - 12:27:49 10° NW 12:30:51 34° NNE 12:33:51 10° E daylight
01 May - 14:04:17 10° WNW 14:07:21 39° SW 14:10:24 10° SSE daylight
02 May - 06:44:40 10° SSW 06:47:36 31° SE 06:50:32 10° ENE daylight
02 May - 08:20:55 10° W 08:24:01 40° NNW 08:27:08 10° NE daylight
02 May - 09:58:39 10° NW 10:01:07 19° N 10:03:33 10° NE daylight
02 May - 11:35:32 10° NW 11:38:20 26° NNE 11:41:08 10° ENE daylight
02 May - 13:11:49 10° WNW 13:15:04 75° SSW 13:18:18 10° SE daylight
